www.pogodaiklimat.ru

Погода и климат >> Архив погоды >> Ирак >> Ubaydah Bin Al Jarrah


ПОГОДА в Ubaydah Bin Al Jarrah

  • Прогноз погоды в Ubaydah Bin Al Jarrah
  • Монитор погоды в Ubaydah Bin Al Jarrah
  • Климат города

АРХИВ ПОГОДЫ в Ubaydah Bin Al Jarrah

Время (UTC), дата Ветер
(напр.,м/с)
 
Видим.   Явления Облачность Т
(С)
Тd
(С)
f
(%)
Тe
(С)
Тes
(С)
Комфортность P
(гПа)
Po
(гПа)
Тmin
(С)
Tmax
(С)
R
(мм)
R24
(мм)
S
(см)
12 18.02 З 5 10 км в посл. час гроза {ливн. осадки} 10/10 900 м
[Cu Sc]
+17.6 +8.7 56 +17 +17 1010.7 1011.0
15 18.02 В 2 10 км ясно +16.4 +9.9 65 +17 +17 1011.0 1011.0
18 18.02 В 8 10 км в посл. час ливневой дождь 10/6 900 м
[Cu Sc As op]
+15.2 +11.0 76 +13 +13 1011.6 1012.0 +18.5 11
21 18.02 В 2 4000 м слабый дождь {гроза, ливн. осадки} 10/6 900 м
[Cu Sc As op]
+13.6 +11.7 88 +13 +13 1012.0 1012.0
00 19.02 штиль 0 4000 м дымка {гроза, ливн. осадки} 10/4 1050 м
[Sc As op]
+14.0 +11.7 86 +14 +14 1011.2 1011.0
06 19.02 З 6 8000 м мгла 1/0
[Ac trans]
+14.8 +11.0 78 +13 +15 1014.0 1014.0 +12.5 8
09 19.02 З 5 10 км 5/5 900 м
[Cu med, cong]
+16.4 +9.0 62 +16 +19 1014.4 1014.0
12 19.02 З 4 10 км 8/8 900 м
[Cu Sc]
+16.8 +9.5 62 +16 +17 1014.3 1014.0
15 19.02 СЗ 2 10 км 1/1 1050 м
[Cu med, cong]
+15.2 +10.2 72 +15 +15 1015.6 1016.0
18 19.02 штиль 0 10 км 1/1 1050 м
[Cu med, cong]
+12.6 +10.6 88 +12 +12 1016.9 1017.0 +17.7
21 19.02 штиль 0 10 км ясно +11.2 +10.0 92 +10 +10 1017.5 1018.0
00 20.02 штиль 0 10 км 3/3 1050 м
[Cu med, cong]
+11.4 +10.6 95 +11 +11 1017.9 1018.0
06 20.02 штиль 0 3500 м дымка {туман} 8/3 1050 м
[Cu hum As trans]
+12.2 +10.6 90 +12 +15 1018.9 1019.0 +8.5
09 20.02 штиль 0 6000 м дымка 8/3 1050 м
[Cu hum As trans]
+16.8 +9.9 64 +17 +23 1018.3 1018.0
12 20.02 штиль 0 10 км 5/3 1050 м
[Cu hum As trans]
+18.4 +8.8 54 +19 +23 1016.2 1016.0
15 20.02 ЮЗ 2 10 км 6/0
[Ac trans]
+16.6 +9.7 64 +17 +17 1017.2 1017.0
18 20.02 штиль 0 10 км 10/0
[As op]
+14.4 +11.4 82 +14 +14 1017.0 1017.0 +19.0
21 20.02 штиль 0 10 км 10/0
[As op]
+13.6 +10.9 84 +13 +13 1016.3 1016.0
03 21.02 штиль 0 10 км 10/0
[As op]
+13.6 +10.9 84 +13 +13 1014.6 1015.0
06 21.02 ЮВ 2 10 км 9/0
[Ac trans]
+15.4 +11.3 77 +15 +18 1015.2 1015.0 +13.0
09 21.02 В 3 10 км 4/3 1050 м
[Cu hum Ac trans Ci fib]
+20.2 +9.7 51 +22 +28 комфорт 1015.2 1015.0
12 21.02 ЮВ 3 10 км 6/3 1050 м
[Cu hum Ac trans Ci fib]
+21.6 +8.8 44 +23 +25 комфорт 1012.5 1013.0
15 21.02 В 2 10 км 6/0
[Ac trans Ci fib]
+20.0 +9.9 52 +22 +22 комфорт 1021.9 1022.0
18 21.02 В 2 10 км 9/0
[As trans Ci fib]
+18.8 +8.3 50 +20 +20 1021.9 1022.0 +22.4
21 21.02 штиль 0 10 км 4/0
[Ac trans Ci fib]
+16.4 +9.0 62 +16 +16 1021.5 1022.0
00 22.02 штиль 0 10 км ясно +14.6 +8.6 67 +14 +14 1020.6 1021.0
03 22.02 штиль 0 10 км ясно +14.2 +8.6 69 +14 +14 1010.6 1011.0
06 22.02 В 2 10 км 9/0
[Cs]
+17.0 +9.3 60 +17 +22 1010.9 1011.0 +13.0
09 22.02 В 2 10 км 10/0
[As trans]
+21.0 +9.9 49 +23 +28 комфорт 1010.9 1011.0
12 22.02 В 2 10 км 4/0
[Ci fib]
+23.6 +8.1 37 +24 +29 комфорт 1009.7 1010.0
18 22.02 штиль 0 10 км ясно +17.0 +12.5 75 +17 +17 1010.6 1011.0 +24.0
21 22.02 штиль 0 10 км ясно +15.8 +10.9 73 +16 +16 1011.4 1011.0
00 23.02 штиль 0 10 км ясно +14.0 +11.7 86 +14 +14 1011.2 1011.0
06 23.02 В 2 6000 м мгла 5/5 1050 м
[Sc]
+17.0 +13.0 77 +17 +20 1012.5 1013.0 +11.7
09 23.02 ЮВ 2 8000 м пыль 9/5 1050 м
[Sc As op]
+20.6 +14.0 66 +24 +26 комфорт 1012.0 1012.0
12 23.02 штиль 0 4500 м пыль 10/6 1050 м
[Sc As op]
+21.6 +13.2 59 +24 +25 комфорт 1010.3 1010.0
15 23.02 Ю 2 4500 м слабый дождь 10/8 900 м
[Cu Sc As op]
+20.0 +15.2 74 +23 +23 комфорт 1009.9 1010.0
21 23.02 СВ 4 10 км 8/8 1050 м
[Cu Sc]
+15.8 +14.0 89 +15 +15 1010.4 1010.0
00 24.02 СВ 3 10 км {дождь} 5/5 1050 м
[Cu med, cong]
+14.8 +12.6 87 +14 +14 1010.0 1010.0
03 24.02 С 2 10 км 5/5 1050 м
[Cu med, cong]
+14.2 +11.9 86 +14 +14 1008.8 1009.0
09 24.02 СЗ 3 10 км 8/4
[Cu med, cong Cs]
+19.8 +13.9 69 +22 +27 комфорт 1008.0 1008.0
21 24.02 СЗ 2 10 км 3/3 1050 м
[Cu med, cong]
+14.6 +12.4 87 +14 +14 1010.5 1011.0
00 25.02 штиль 0 10 км ясно +12.6 +11.0 90 +12 +12 1010.5 1011.0

 

Местоположение метеостанции Ubaydah Bin Al Jarrah (Ирак): широта 32.49 долгота 45.75 высота над уровнем моря 21 м.

В архиве по умолчанию представлена погода в Ubaydah Bin Al Jarrah за последнюю неделю. Архивные данные за месяц целиком и за предыдущие месяцы, начиная с января 2011 года, Вы можете получить, выбрав интересующий диапазон дат из раскрывающегося списка и нажав кнопку "Ввод!".

Внимание! Время в таблицах - всемирное. Для получения местного времени необходимо прибавить поправку, которая в Ubaydah Bin Al Jarrah равна 3 ч.

Смотрите также архив погоды в соседних городах и на ближайших метеорологических станциях:

Погода в Kut-Al-Hai (Ирак) (45 км)
Погода в Badrah (Ирак) (70 км)
Погода в Azizyah (Ирак) (80 км)
Погода в Ali Al-Gharbi (Ирак) (91 км)
Погода в Rifai (Ирак) (92 км)
Погода в Diwaniya (Ирак) (92 км)
Погода в Hella (Ирак) (122 км)
Погода в Samawah (Ирак) (140 км)
Погода в Ilam (Иран) (142 км)
Погода в Najaf (Ирак) (146 км)

Пояснения к столбцам:

Ветер - указаны скорость ветра в м/с - средняя за 10 мин, порывы в срок и между сроками (в фигурных скобках) и направление, откуда дует ветер: С - северный, СВ - северо-восточный, В - восточный, ЮВ - юго-восточный, Ю - южный, ЮЗ - юго-западный, З - западный, СЗ - северо-западный.
Видимость - горизонтальная дальность видимости в метрах или километрах. При видимости от 1 до 10 км при отсутствии осадков обычно наблюдается дымка, при ухудшении видимости до 1 км и менее - туман. В сухую погоду видимость может ухудшаться дымом, пылью или мглою.
Явления - указаны атмосферные явления, наблюдавшиеся в срок или в последний час перед сроком; фигурными скобками обозначены явления, наблюдавшиеся между сроками (за 1-3 часа до срока); квадратными скобками обозначены град или гололедные отложения с указанием их диаметра в мм.
Облачность - указаны через наклонную черту общая и нижняя облачность в баллах и высота нижней границы облаков в метрах; квадратными скобками обозначены формы облаков: Ci - перистые, Cs - перисто-слоистые, Cc - перисто-кучевые, Ac - высококучевые, As - высокослоистые, Sc - слоисто-кучевые, Ns - слоисто-дождевые, Cu - кучевые, Cb - кучево-дождевые. Подробнее классификацию облаков см. в Атласе облаков (PDF).
T - Температура воздуха - температура, измеренная на высоте 2 м над землей.
Td - Температура точки росы - температура, при понижении до которой содержащийся в воздухе водяной пар достигнет насыщения.
f - Относительная влажность воздуха - влажноcть воздуха, измеренная на высоте 2 м над землей.
Te - Эффективная температура - температура, которую ощущает одетый по сезону человек в тени. Характеристика душности погоды. При расчете учитывается влияние влажности воздуха и скорости ветра на теплоощущения человека.
Tes - Эффективная температура на солнце - температура, которую ощущает человек, с поправкой на солнечный нагрев. Характеристика знойности погоды. Зависит от высоты солнца над горизонтом, облачности и скорости ветра. Ночью, в пасмурную погоду, а также при ветре 12 м/с и более поправка равна нулю.
P - Атмосферное давление - приведенное к уровню моря атмосферное давление.
Po - Атмосферное давление - измеренное на уровне метеостанции атмосферное давление.
Tmin - Минимальная температура - минимум температуры воздуха на высоте 2 м над землей.
Tmax - Максимальная температура - максимум температуры воздуха на высоте 2 м над землей.
R - Количество осадков - Количество выпавших осадков за период времени, мм. При наведении курсора мыши на число - период времени, за который выпало указанное количество осадков.
R24 - Количество осадков - Количество выпавших осадков за 24 часа, мм.
S - Снежный покров - Высота снежного покрова, см. При наведении курсора мыши на число - состояние снежного покрова и степень покрытия местности в баллах.